Home   Weather   Gainesville   Past weeks

Flag for USA Past Weather in Gainesville, Florida, USA — Yesterday and Last 2 Weeks

Now
53 °F

Clear.


Feels Like: 53 °F
Forecast: 55 / 80 °F
Wind: No wind

Location: Gainesville Regional Airport

Current Time: Jan 18, 2017 at 3:27:33 am

Latest Report: Jan 18, 2017 at 2:53 am


Visibility: 10 mi

Pressure: 30.17 "Hg

Humidity: 93%

Dew Point: 51 °F

Location of GainesvilleLocation

Past Weather in Gainesville — Graph

°F

Gainesville Temperature Yesterday

Maximum temperature yesterday: 81 °F (at 1:53 pm)
Minimum temperature yesterday: 51 °F (at 6:15 am)
Average temperature yesterday: 62 °F

High & Low Weather Summary for the Past Weeks

 TemperatureHumidityPressure
High81 °F (Jan 17, 1:53 pm)100% (Jan 6, 4:33 am)30.66 "Hg (Jan 6, 4:33 am)
Low26 °F (Jan 8, 11:53 pm)30% (Jan 8, 2:53 pm)29.81 "Hg (Jan 4, 2:53 pm)
Average58 °F78%30.24 "Hg
* Reported Jan 3 1:53 am — Jan 18 1:53 am, Gainesville, Weather by CustomWeather, © 2017

Note: Actual official high and low records may vary slightly from our data, if they occured in-between our weather recording intervals... More about our weather records

Advertising

Gainesville Weather History for the Previous 24 Hours

Scroll right to see more
 ConditionsComfort  
Time TempWeatherWind HumidityBarometerVisibility
1:53 am
Wed, Jan 18
54 °FClear.3 mph93%30.19 "Hg10 mi
12:53 am56 °FClear.No wind90%30.19 "Hg10 mi
11:53 pm
Tue, Jan 17
55 °FClear.No wind96%30.22 "Hg10 mi
10:53 pm58 °FClear.No wind90%30.22 "Hg10 mi
9:53 pm60 °FPassing clouds.No wind86%30.24 "Hg10 mi
8:53 pm63 °FPassing clouds.No wind84%30.24 "Hg10 mi
7:53 pm65 °FPassing clouds.3 mph76%30.24 "Hg10 mi
6:53 pm67 °FPassing clouds.No wind73%30.22 "Hg10 mi
5:53 pm73 °FPassing clouds.3 mph57%30.20 "Hg10 mi
4:53 pm77 °FPartly sunny.No wind50%30.18 "Hg10 mi
3:53 pm78 °FPartly sunny.3 mph43%30.19 "Hg10 mi
2:53 pm80 °FScattered clouds.3 mph39%30.19 "Hg10 mi
1:53 pm81 °FScattered clouds.10 mph39%30.20 "Hg10 mi
12:53 pm79 °FPassing clouds.6 mph42%30.22 "Hg10 mi
11:53 am77 °FSunny.10 mph54%30.25 "Hg10 mi
10:53 am75 °FSunny.8 mph62%30.27 "Hg10 mi
9:53 am68 °FSunny.5 mph78%30.27 "Hg10 mi
8:53 am60 °FSunny.No wind90%30.26 "Hg10 mi
8:27 am55 °FScattered clouds.No wind93%30.26 "Hg10 mi
7:53 am51 °FLow clouds.No wind96%30.25 "Hg8 mi
7:23 am51 °FLow clouds.No wind92%30.25 "Hg10 mi
7:01 am51 °FFog.No wind96%30.24 "Hg2 mi
6:15 am51 °FFog.No wind96%30.23 "Hg1 mi
5:20 am52 °FLow clouds.No wind93%30.23 "Hg10 mi
5:00 am52 °FPassing clouds.No wind93%30.23 "Hg10 mi
3:53 am52 °FClear.No wind93%30.22 "Hg9 mi
3:36 am52 °FFog.No wind93%30.23 "Hg1 mi
Weather by CustomWeather, © 2017

See weather overviewHow to use our weather pages